Midland, MI

4:25 AM EST on December 09, 2016 (GMT -0500)
Barstow

Weather History for KIKW - September, 2013

Change the Weather History Date:

Sunday, September 15, 2013

  Actual Average (KMBS) Record (KMBS)
Temperature  
Mean Temperature 54 °F -  
Max Temperature 60 °F 72 °F 84 °F (2004)
Min Temperature 48 °F 49 °F 39 °F (2007)
Degree Days  
Heating Degree Days 11    
Growing Degree Days 4 (Base 50)    
Moisture  
Dew Point 52 °F    
Average Humidity 88    
Maximum Humidity 100    
Minimum Humidity 67    
Precipitation  
Precipitation 0.05 in - - ()
Sea Level Pressure  
Sea Level Pressure 30.07 in    
Wind  
Wind Speed 1 mph (SW)    
Max Wind Speed 7 mph    
Max Gust Speed -    
Visibility 9 miles    
Events Rain    
Averages and records for this station are not official NWS values.
T = Trace of Precipitation, MM = Missing Value Source: NWS Daily Summary

Daily Weather History Graph

Daily Weather History Graph

Search for Another Location

Airport or City:

Trip Planner

Search our weather history database for the weather conditions in past years. The results will help you decide how hot, cold, wet, or windy it might be!

Date:

Astronomy

Sep. 15, 2013 Rise Set
Actual Time 7:16 AM EDT 7:46 PM EDT
Civil Twilight 6:47 AM EDT 8:15 PM EDT
Nautical Twilight 6:13 AM EDT 8:49 PM EDT
Astronomical Twilight 5:38 AM EDT 9:24 PM EDT
Moon 5:19 PM EDT (9/15) 2:47 AM EDT (9/15)
Length of Visible Light 13h 27m
Length of Day
12h 30m
Waxing Gibbous, 82% of the Moon is Illuminated
Sep 15
Waxing Gibbous
Sep 19
Full
Sep 26
Last Quarter
Oct 4
New
Oct 11
First Quarter

Hourly Weather History & Observations

Time (EDT) Temp. Dew Point Humidity Pressure Visibility Wind Dir Wind Speed Gust Speed Precip Events Conditions
12:14 AM 53.2 °F 48.4 °F 84% 30.06 in 10.0 mi Calm Calm - N/A   Clear
12:35 AM 53.6 °F 48.6 °F 83% 30.07 in 10.0 mi Calm Calm - N/A   Clear
12:54 AM 52.5 °F 48.9 °F 88% 30.07 in 10.0 mi Calm Calm - N/A   Clear
1:14 AM 50.0 °F 48.4 °F 94% 30.06 in 10.0 mi Calm Calm - N/A   Clear
1:34 AM 52.0 °F 49.6 °F 92% 30.06 in 10.0 mi Calm Calm - N/A   Clear
1:54 AM 51.3 °F 48.6 °F 90% 30.06 in 10.0 mi Calm Calm - N/A   Clear
2:14 AM 49.3 °F 48.4 °F 97% 30.06 in 10.0 mi Calm Calm - N/A   Clear
2:34 AM 48.4 °F 47.7 °F 97% 30.05 in 10.0 mi Calm Calm - N/A   Clear
2:54 AM 49.5 °F 48.6 °F 97% 30.05 in 10.0 mi Calm Calm - N/A   Clear
3:14 AM 49.8 °F 48.9 °F 97% 30.05 in 10.0 mi Calm Calm - N/A   Clear
3:34 AM 49.6 °F 48.7 °F 97% 30.04 in 10.0 mi Calm Calm - N/A   Clear
3:54 AM 50.4 °F 49.6 °F 97% 30.05 in 10.0 mi Calm Calm - N/A   Clear
4:14 AM 50.0 °F 49.3 °F 97% 30.06 in 10.0 mi Calm Calm - N/A   Clear
4:34 AM 50.2 °F 49.3 °F 97% 30.05 in 10.0 mi Calm Calm - N/A   Clear
4:54 AM 50.4 °F 49.6 °F 97% 30.05 in 10.0 mi Calm Calm - N/A   Clear
5:14 AM 50.9 °F 50.0 °F 97% 30.06 in 10.0 mi Calm Calm - N/A   Clear
5:34 AM 50.9 °F 50.0 °F 97% 30.07 in 10.0 mi Calm Calm - N/A   Clear
5:54 AM 50.9 °F 50.0 °F 97% 30.06 in 10.0 mi Calm Calm - N/A   Clear
6:14 AM 52.7 °F 50.4 °F 92% 30.06 in 10.0 mi Calm Calm - N/A   Clear
6:34 AM 53.6 °F 49.8 °F 87% 30.06 in 10.0 mi Calm Calm - N/A   Clear
6:54 AM 54.5 °F 49.5 °F 83% 30.06 in 10.0 mi Calm Calm - N/A   Scattered Clouds
7:13 AM 54.5 °F 48.7 °F 81% 30.07 in 10.0 mi Calm Calm - N/A   Scattered Clouds
7:34 AM 54.5 °F 48.9 °F 81% 30.07 in 10.0 mi Calm Calm - N/A   Scattered Clouds
7:54 AM 54.5 °F 48.4 °F 80% 30.07 in 10.0 mi Calm Calm - N/A   Clear
8:13 AM 54.7 °F 47.3 °F 76% 30.06 in 10.0 mi Calm Calm - N/A   Mostly Cloudy
8:34 AM 54.7 °F 46.9 °F 75% 30.05 in 10.0 mi Calm Calm - N/A   Overcast
8:54 AM 55.4 °F 46.8 °F 73% 30.02 in 10.0 mi SSE 3.5 mph - N/A   Scattered Clouds
9:15 AM 55.9 °F 47.3 °F 73% 30.04 in 10.0 mi SSW 5.8 mph - N/A   Scattered Clouds
9:34 AM 56.3 °F 47.1 °F 71% 30.04 in 10.0 mi Calm Calm - N/A   Scattered Clouds
9:54 AM 57.2 °F 46.8 °F 68% 30.04 in 10.0 mi Calm Calm - N/A   Mostly Cloudy
10:14 AM 57.6 °F 46.8 °F 67% 30.04 in 10.0 mi Calm Calm - N/A   Overcast
10:34 AM 58.3 °F 47.3 °F 67% 30.04 in 10.0 mi SSW 4.6 mph - N/A   Overcast
10:54 AM 58.5 °F 48.0 °F 68% 30.06 in 10.0 mi SSW 5.8 mph - N/A   Overcast
11:14 AM 59.0 °F 48.2 °F 67% 30.05 in 10.0 mi Calm Calm - N/A   Overcast
11:34 AM 59.4 °F 48.7 °F 68% 30.05 in 10.0 mi Calm Calm - N/A   Overcast
11:55 AM 59.7 °F 49.3 °F 68% 30.05 in 10.0 mi SW 4.6 mph - N/A   Overcast
12:14 PM 59.9 °F 50.0 °F 70% 30.05 in 10.0 mi SW 5.8 mph - N/A   Overcast
12:34 PM 59.9 °F 50.5 °F 71% 30.06 in 10.0 mi SSW 5.8 mph - N/A   Overcast
12:55 PM 60.4 °F 51.1 °F 71% 30.06 in 10.0 mi SSW 4.6 mph - N/A   Overcast
1:14 PM 60.6 °F 51.3 °F 71% 30.06 in 10.0 mi SW 5.8 mph - N/A Rain Light Rain
1:34 PM 60.6 °F 51.8 °F 73% 30.05 in 10.0 mi SW 5.8 mph - N/A   Overcast
1:55 PM 60.6 °F 52.9 °F 76% 30.05 in 10.0 mi SSW 5.8 mph - N/A Rain Rain
2:14 PM 59.5 °F 54.0 °F 82% 30.06 in 10.0 mi SW 4.6 mph - N/A Rain Rain
2:34 PM 60.3 °F 54.5 °F 81% 30.06 in 10.0 mi WSW 4.6 mph - N/A   Overcast
2:54 PM 59.9 °F 54.3 °F 82% 30.06 in 10.0 mi WSW 5.8 mph - N/A   Overcast
3:14 PM 59.4 °F 55.0 °F 86% 30.07 in 7.0 mi SW 6.9 mph - N/A Rain Light Rain
3:34 PM 59.0 °F 56.5 °F 91% 30.05 in 10.0 mi Calm Calm - N/A   Overcast
3:54 PM 59.0 °F 56.3 °F 91% 30.06 in 10.0 mi Calm Calm - N/A   Overcast
4:14 PM 59.4 °F 55.8 °F 88% 30.05 in 10.0 mi NW 3.5 mph - N/A   Overcast
4:34 PM 59.0 °F 56.7 °F 92% 30.05 in 10.0 mi NW 3.5 mph - N/A Rain Rain
4:54 PM 58.6 °F 57.2 °F 95% 30.06 in 10.0 mi WSW 3.5 mph - 0.01 in Rain Light Rain
5:14 PM 58.3 °F 56.7 °F 94% 30.07 in 7.0 mi SW 4.6 mph - N/A Rain Light Rain
5:34 PM 58.1 °F 56.5 °F 94% 30.07 in 10.0 mi WSW 3.5 mph - 0.01 in Rain Rain
5:54 PM 58.1 °F 56.3 °F 94% 30.07 in 10.0 mi Calm Calm - 0.02 in Rain Light Rain
6:14 PM 57.7 °F 55.8 °F 93% 30.07 in 10.0 mi WSW 3.5 mph - 0.01 in Rain Light Rain
6:35 PM 57.4 °F 56.3 °F 96% 30.08 in 10.0 mi West 3.5 mph - 0.01 in   Drizzle
6:54 PM 57.2 °F 55.9 °F 96% 30.09 in 10.0 mi Calm Calm - 0.01 in   Drizzle
7:14 PM 57.2 °F 55.9 °F 96% 30.09 in 7.0 mi Calm Calm - 0.01 in   Drizzle
7:34 PM 56.8 °F 55.9 °F 97% 30.09 in 10.0 mi Calm Calm - 0.01 in   Overcast
7:54 PM 56.7 °F 55.9 °F 97% 30.09 in 10.0 mi WSW 3.5 mph - 0.01 in   Overcast
8:14 PM 56.5 °F 55.8 °F 97% 30.09 in 10.0 mi SSW 3.5 mph - N/A   Overcast
8:34 PM 56.5 °F 56.1 °F 99% 30.10 in 10.0 mi Calm Calm - N/A   Overcast
8:54 PM 56.7 °F 56.3 °F 99% 30.10 in 10.0 mi Calm Calm - N/A   Overcast
9:15 PM 56.1 °F 55.6 °F 98% 30.10 in 10.0 mi Calm Calm - N/A   Overcast
9:34 PM 55.9 °F 55.4 °F 98% 30.11 in 10.0 mi Calm Calm - N/A   Overcast
9:54 PM 55.6 °F 55.0 °F 98% 30.11 in 5.0 mi Calm Calm - N/A   Overcast
10:14 PM 55.0 °F 54.7 °F 99% 30.12 in 5.0 mi Calm Calm - N/A   Overcast
10:34 PM 54.5 °F 54.1 °F 99% 30.12 in 5.0 mi Calm Calm - N/A   Scattered Clouds
10:55 PM 54.5 °F 54.5 °F 100% 30.12 in 5.0 mi Calm Calm - N/A   Mostly Cloudy
11:14 PM 55.0 °F 54.9 °F 99% 30.12 in 5.0 mi WSW 3.5 mph - N/A   Overcast
11:34 PM 55.4 °F 55.4 °F 100% 30.12 in 7.0 mi West 3.5 mph - N/A   Overcast
11:54 PM 55.6 °F 55.4 °F 99% 30.13 in 7.0 mi Calm Calm - N/A   Overcast